Overview Statistics Trail Chart Weather Telemetry Raw packets
 

This is the latest recevied weather packets stored in our database for station/object KI5RAB. If no packets are shown the sender has not sent any weather packets the latest 10 day(s).

<< 17 18 19 20 21 22 23 >>
Time Temp. Humidity Pressure Rain* Wind** Luminosity Snow
1788544254 31.11° C 68% 1017.7 hPa 0 mm - 258 W/m² -
1788543949 31.67° C 66% 1017.7 hPa 0 mm - 261 W/m² -
1788543646 31.67° C 67% 1017.6 hPa 0 mm - 278 W/m² -
1788543345 31.67° C 68% 1017.8 hPa 0 mm - 289 W/m² -
1788543041 31.67° C 68% 1018 hPa 0 mm - 302 W/m² -
1788542737 31.11° C 70% 1018.1 hPa 0 mm - 305 W/m² -
1788542436 31.11° C 70% 1017.9 hPa 0 mm - 302 W/m² -
1788542132 31.67° C 68% 1018.1 hPa 0 mm - 292 W/m² -
1788541827 31.67° C 69% 1018 hPa 0 mm - 348 W/m² -
1788541522 32.22° C 67% 1018.3 hPa 0 mm - 391 W/m² -
1788541219 31.67° C 67% 1018 hPa 0 mm - 752 W/m² -
1788540917 31.11° C 71% 1018.3 hPa 0 mm - 559 W/m² -
1788540617 30.56° C 71% 1018.4 hPa 0 mm - 344 W/m² -
1788540312 30.56° C 71% 1018.3 hPa 0 mm - 279 W/m² -
1788540008 30.56° C 73% 1018.3 hPa 0 mm - 262 W/m² -
1788539702 30° C 73% 1018.4 hPa 0 mm - 288 W/m² -
1788539401 30.56° C 74% 1018.5 hPa 0 mm - 221 W/m² -
1788539096 30° C 73% 1018.4 hPa 0 mm - 234 W/m² -
1788538792 30.56° C 73% 1018.3 hPa 0 mm - 241 W/m² -
1788538487 30.56° C 74% 1018.2 hPa 0 mm - 253 W/m² -
1788538183 30° C 74% 1018.2 hPa 0 mm - 224 W/m² -
1788537877 30° C 74% 1018.2 hPa 0 mm - 226 W/m² -
1788537573 30.56° C 74% 1018.4 hPa 0 mm - 317 W/m² -
1788537273 30° C 75% 1018.4 hPa 0 mm - 298 W/m² -
1788536971 30.56° C 75% 1018.3 hPa 0 mm - 345 W/m² -

* Rain latest hour (hover to see other rain measurements)
** Current wind speed in m/s (hover to see current wind gust speed)